This is the latest recevied weather packets stored in our database for station/object W4OTS. If no packets are shown the sender has not sent any weather packets the latest 10 day(s).
| Time | Temp. | Humidity | Pressure | Rain* | Wind** | Luminosity | Snow |
|---|---|---|---|---|---|---|---|
| 1777836347 | 18.33° C | 34% | 1019.2 hPa | 0 mm | - | 39 W/m² | - |
| 1777836043 | 18.33° C | 35% | 1019.4 hPa | 0 mm | - | 45 W/m² | - |
| 1777835740 | 18.33° C | 35% | 1019.5 hPa | 0 mm | - | 39 W/m² | - |
| 1777835437 | 18.33° C | 38% | 1019.6 hPa | 0 mm | - | 44 W/m² | - |
| 1777835133 | 17.78° C | 34% | 1019.6 hPa | 0 mm | - | 41 W/m² | - |
| 1777834830 | 18.33° C | 33% | 1019.8 hPa | 0 mm | - | 76 W/m² | - |
| 1777834527 | 18.33° C | 36% | 1019.9 hPa | 0 mm | - | 158 W/m² | - |
| 1777834221 | 18.89° C | 37% | 1019.7 hPa | 0 mm | - | 52 W/m² | - |
| 1777833918 | 18.33° C | 34% | 1019.8 hPa | 0 mm | - | 61 W/m² | - |
| 1777833614 | 19.44° C | 35% | 1019.8 hPa | 0 mm | - | 596 W/m² | - |
| 1777833311 | 18.33° C | 36% | 1020 hPa | 0 mm | - | 613 W/m² | - |
| 1777833008 | 18.33° C | 36% | 1020.1 hPa | 0 mm | - | 612 W/m² | - |
| 1777832707 | 18.33° C | 37% | 1020.3 hPa | 0 mm | - | 618 W/m² | - |
| 1777832404 | 18.89° C | 35% | 1020.2 hPa | 0 mm | - | 630 W/m² | - |
| 1777832101 | 18.89° C | 35% | 1020.3 hPa | 0 mm | - | 612 W/m² | - |
| 1777831796 | 17.78° C | 40% | 1020.2 hPa | 0 mm | - | 600 W/m² | - |
| 1777831495 | 17.78° C | 37% | 1020.5 hPa | 0 mm | - | 665 W/m² | - |
| 1777831191 | 17.78° C | 39% | 1020.7 hPa | 0 mm | - | 717 W/m² | - |
| 1777830889 | 17.22° C | 40% | 1020.5 hPa | 0 mm | - | 713 W/m² | - |
| 1777830585 | 17.78° C | 37% | 1020.4 hPa | 0 mm | - | 726 W/m² | - |
| 1777830283 | 17.78° C | 39% | 1020.6 hPa | 0 mm | - | 690 W/m² | - |
| 1777829978 | 17.22° C | 37% | 1020.8 hPa | 0 mm | - | 698 W/m² | - |
| 1777829674 | 17.22° C | 44% | 1020.8 hPa | 0 mm | - | 713 W/m² | - |
| 1777829371 | 17.22° C | 40% | 1020.6 hPa | 0 mm | - | 704 W/m² | - |
| 1777829068 | 16.67° C | 38% | 1021 hPa | 0 mm | - | 704 W/m² | - |
* Rain latest hour (hover to see other rain measurements)
** Current wind speed in m/s (hover to see current wind gust speed)